{"data":{"norad_id":67983,"intl_designator":"2026-038Y","name":"STARLINK-36867","alt_names":[],"object_type":"PAYLOAD","status":"ACTIVE","operator":null,"country":"US","launch_date":"2026-02-25","launch_site_code":"AFWTR","launch_vehicle":null,"mission":null,"orbit_class":"UNKNOWN","rcs_meters":null,"size_class":null,"mass_kg":null,"dimensions":null,"purposes":["comms"],"wikipedia_slug":null,"has_3d_model":false,"image_url":null,"decayed_at":null,"tle_current":{"epoch":"2026-05-25T00:42:12.014208Z","epoch_age_seconds":86710,"freshness":"FRESH","line1":"1 67983U 26038Y   26145.02930572  .00014659  00000+0  45516-3 0  9996","line2":"2 67983  97.2838 155.1369 0000616  68.3892 291.7416 15.33470361 14942","mean_motion":15.33470361,"eccentricity":6.16e-5,"inclination_deg":97.2838,"raan_deg":155.1369,"arg_perigee_deg":68.3892,"mean_anomaly_deg":291.7416,"bstar":0.00045516,"rev_number":1494,"period_min":93.904651607414,"perigee_km":465.04615297436,"apogee_km":465.88928507574,"semimajor_km":6843.6047190251,"source":"CELESTRAK","updated_at":"2026-05-25T13:38:21.777785Z"}}}